Starlink 11274

operational
NORAD ID: 61001 Int'l Des: 2024-158 Owner: SPXS Country: US Constellation: starlink
LEOCIRCULAR

关于 Starlink 11274

正在加载描述...

实时位置

正在加载3D地球...

即将过境

高度历史

Altitude vs Time

uPlot chart will show altitude changes over time

两行轨道根数

1 61001U 24158M 25303.91682228 .00001167 00000-0 14493-4 0 9999
2 61001 53.1591 200.8975 0001028 88.9453 271.1683 15.69709115 67200
Epoch: Oct 30, 2025 • Age: 22 hours

当前状态

高度 362.1 km
速度 7.69 km/s
星下点 -7.90°S, 38.87°E
发射日期 Sep 5, 2024
运行时间 1.1 years
类型 internet

技术详情

分类 Payload
质量 960.00 kg
干质量 910.00 kg
总质量 960.00 kg
长度 0.30 m
直径 4.10 m
跨度 29.00 m
形状 Box + pan
制造商 SPXS
平台类型 Starlink V2MD
阶段状态 In Orbit
所有者/国家 SPXS/US

大型星座

Loading constellations...